Погода в Слободском

Россия / Кировская область     58°43′54″N   50°11′01″E
темп.,
°C
ветер,
м/с
пор.,
м/с
влажн.,
%
обл.,
%
осадки,
мм/ч
давл.,
гПа
погр.,
м
24 июля, сб
сб2400:00+12юз2798100 0.4 1001255
03:00+12зюз3798100 1.2 1001482
06:00+12ссз489461 0.3 1003599
09:00+14сз4569100 0.4 10061077
12:00+17сз3541100 0.1 10072158
15:00+18сз463597 0.1 10082572
18:00+16сз484373 0.0 10101008
21:00+9сз26676 0.0 1013107
25 июля, вс
вс2500:00+7сз247523 0.0 101576
03:00+6сз23805 0.0 101644
06:00+10з24645 0.0 1018221
09:00+14з3550100 0.0 1018822
12:00+17з474361 0.0 10182066
15:00+17зсз3647100 0.0 10181970
18:00+15з2463100 0.0 1019235
21:00+13зюз2566100 0.0 1019115
26 июля, пн
пн2600:00+12з2470100 0.0 1020110
03:00+12з2572100 0.0 1020138
06:00+14зюз26677 0.0 1020247
09:00+18з4753100 0.0 1020772
12:00+22з474286 0.0 10182331
15:00+22з584225 0.0 10172115
18:00+19зсз256151 0.0 1017304
21:00+14зсз2488100 0.3 1017124
27 июля, вт
вт2700:00+14з3797100 1.6 1016321
03:00+12сз399710 1.8 1017350
06:00+12ссз369461 0.0 1018424
09:00+13ссз4581100 0.1 1018792
12:00+15ссз356226 0.1 10181162
15:00+16ссз465991 0.1 1017956
18:00+16ссз36595 0.0 1017959
21:00+11сз26790 0.0 1018104
28 июля, ср
ср2800:00+8зюз00875 0.0 101810
03:00+8зюз22890 0.0 101824
06:00+12зюз356815 0.0 1017198
09:00+18юз464838 0.0 1014769
12:00+22зюз610455 0.0 10111665
15:00+24зюз5125196 0.3 10082187
18:00+21зюз81370100 0.1 1007819
21:00+15ссз2894100 6.6 1008377